TimeCDT,TemperatureF,Dew PointF,Humidity,Sea Level PressureIn,VisibilityMPH,Wind Direction,Wind SpeedMPH,Gust SpeedMPH,PrecipitationIn,Events,Conditions,WindDirDegrees,DateUTC
12:58 AM,84.4,64.2,51,29.93,10.0,SSE,13.8,-,N/A,Thunderstorm,Overcast,160,2013-07-08 05:58:00
1:26 AM,80.6,66.2,61,29.98,10.0,SSE,11.5,-,N/A,,Light Drizzle,150,2013-07-08 06:26:00
1:54 AM,78.8,68.0,69,30.00,10.0,Variable,5.8,-,N/A,,Scattered Clouds,0,2013-07-08 06:54:00
1:58 AM,78.1,68.4,72,29.96,10.0,West,2.3,-,0.00,,Scattered Clouds,280,2013-07-08 06:58:00
2:34 AM,78.8,68.0,69,30.01,10.0,ESE,4.6,-,N/A,,Light Drizzle,120,2013-07-08 07:34:00
2:58 AM,77.5,69.3,76,29.96,10.0,ESE,11.5,-,0.00,,Light Drizzle,120,2013-07-08 07:58:00
3:02 AM,77.0,68.0,74,30.00,10.0,SE,13.8,-,N/A,,Clear,130,2013-07-08 08:02:00
3:58 AM,77.9,67.3,70,29.98,10.0,SSE,3.5,-,0.00,,Scattered Clouds,160,2013-07-08 08:58:00
4:58 AM,77.7,67.1,70,29.98,10.0,WSW,4.6,-,N/A,,Scattered Clouds,240,2013-07-08 09:58:00
5:58 AM,77.0,66.2,69,29.98,10.0,Variable,2.3,-,N/A,,Clear,0,2013-07-08 10:58:00
6:58 AM,75.9,66.7,73,29.96,10.0,SSW,5.8,-,N/A,,Partly Cloudy,200,2013-07-08 11:58:00
7:58 AM,78.6,66.9,67,29.96,10.0,SSW,8.1,-,N/A,,Clear,210,2013-07-08 12:58:00
8:58 AM,81.9,67.3,61,29.97,10.0,SSW,11.5,-,N/A,,Partly Cloudy,210,2013-07-08 13:58:00
9:58 AM,83.5,65.7,55,29.97,10.0,SSW,15.0,-,N/A,,Partly Cloudy,210,2013-07-08 14:58:00
10:58 AM,86.2,67.5,53,29.97,10.0,SW,13.8,-,N/A,,Partly Cloudy,230,2013-07-08 15:58:00
11:58 AM,90.0,66.7,46,29.96,10.0,SSW,11.5,-,N/A,,Partly Cloudy,200,2013-07-08 16:58:00
12:58 PM,93.4,63.9,37,29.94,10.0,SSW,12.7,-,N/A,,Scattered Clouds,210,2013-07-08 17:58:00
1:58 PM,96.8,63.3,33,29.93,10.0,South,12.7,-,N/A,,Scattered Clouds,190,2013-07-08 18:58:00
2:58 PM,97.3,63.0,32,29.92,10.0,SSW,11.5,-,N/A,,Partly Cloudy,200,2013-07-08 19:58:00
3:58 PM,100.0,62.1,29,29.90,10.0,South,16.1,-,N/A,,Partly Cloudy,180,2013-07-08 20:58:00
4:58 PM,98.6,61.9,30,29.90,10.0,SSE,13.8,-,N/A,,Clear,160,2013-07-08 21:58:00
5:58 PM,99.3,61.7,29,29.89,10.0,South,15.0,20.7,N/A,,Partly Cloudy,180,2013-07-08 22:58:00
6:58 PM,96.6,63.0,33,29.88,10.0,SSE,10.4,-,N/A,,Clear,160,2013-07-08 23:58:00
7:58 PM,93.9,63.0,36,29.88,10.0,SSE,12.7,-,N/A,,Clear,160,2013-07-09 00:58:00
8:58 PM,90.7,63.0,40,29.88,10.0,SSE,10.4,-,N/A,,Clear,150,2013-07-09 01:58:00
9:58 PM,88.0,64.8,46,29.90,10.0,SSE,13.8,-,N/A,,Clear,160,2013-07-09 02:58:00
10:58 PM,87.1,65.8,49,29.92,10.0,SSE,15.0,-,N/A,,Clear,160,2013-07-09 03:58:00
11:58 PM,85.1,66.6,54,29.91,10.0,SSE,16.1,-,N/A,,Clear,160,2013-07-09 04:58:00